sat.trackr.live / text

‹ back to catalog

STARLINK-37180

NORAD 68333 · 2026-059N

PAYLOAD ACTIVE UNKNOWN

§ Identity

Operator
Country
US
Launch date
2026-03-22
Launch site
AFETR
Launch vehicle
Mass (kg)
RCS (m²)

Purposes: comms

External: N2YO · Heavens-Above · Gunter

§ Orbital elements

Epoch: 2026-09-19T22:50:14.961120Z

Period
93.85 min
Inclination
53.1584°
Eccentricity
0.0001979
Mean motion
15.34399149 rev/d
Perigee alt
461.4 km
Apogee alt
464.1 km
Semi-major
6,840.8 km
B*
8.1987e-4
RAAN
158.4447°
Arg perigee
84.7181°
Mean anomaly
275.4047°
Rev number
2,802

§ Raw data

STARLINK-371801 68333U 26059N   26262.95156205  .00027425  00000+0  81987-3 0  99912 68333  53.1584 158.4447 0001979  84.7181 275.4047 15.34399149 28028

JSON: /api/v1/satellites/68333 · /tle

For live sub-satellite position, see the globe view (requires WebGL).

§ Visibility from observer

Set your observer location to see the next 7 days of passes ≥ 10°. The values pass through the URL so the page stays shareable.

No JS? Fill the form by hand. The geolocation button needs JavaScript.